#timestamp,LO_Frequency,Hit,StdDev 
1519246815.5,286046999.7,N
1519246835.4,286047000.3,N
1519246855.2,286047001.0,N
1519246875.0,286046999.9,N
1519246875.9,286046999.9,N
1519246895.8,286047000.3,N
1519246915.6,286047000.1,N
1519246935.5,286046999.8,N
1519246955.3,286047002.6,N
1519246975.1,286047002.3,N
1519246995.9,286046999.7,N
1519247015.1,286047002.4,N
1519247035.9,286047002.6,N
1519247055.7,286047001.8,N
1519247075.5,286047004.3,Y
1519247095.4,286047002.3,P
1519247115.2,286047002.3,N
1519247135.1,286047002.8,P
1519247136.0,286047002.8,Y
1519247155.8,286046998.9,P
1519247175.7,286046996.9,N
1519247195.5,286046996.6,N
1519247215.3,286046999.4,N
1519247235.2,286046998.5,N
1519247255.0,286046998.8,N
1519247255.9,286046998.8,N
1519247275.8,286046999.2,N
1519247295.6,286046996.7,N
1519247315.4,286046999.3,N
1519247335.3,286046997.3,N
1519247355.1,286046998.0,N
1519247375.8,286046995.3,Y
1519247395.7,286046999.5,P
1519247415.5,286046997.2,P
1519247435.4,286046997.6,N
1519247455.2,286046997.3,Y
1519247475.0,286046999.3,P
1519247475.9,286046999.3,N
1519247495.8,286046999.0,N
1519247515.6,286046996.5,Y
1519247535.5,286046998.1,P
1519247555.3,286047001.0,N
1519247575.1,286047001.1,N
1519247595.9,286046998.7,N
1519247615.7,286046999.2,N
1519247635.5,286046997.3,N
1519247655.4,286046997.9,N
1519247675.2,286046995.4,Y
1519247695.1,286046997.9,P
1519247696.0,286046997.9,P
1519247715.8,286046997.3,P
1519247735.6,286046995.3,Y
1519247755.5,286046996.5,P
1519247775.3,286046997.1,P
1519247795.2,286046999.1,N
1519247815.0,286046999.6,N
1519247815.9,286046999.6,N
1519247835.7,286046999.6,N
1519247855.6,286046996.8,N
1519247875.4,286046999.6,N
1519247895.3,286046997.5,N
1519247915.1,286046995.8,Y
1519247935.8,286046999.5,P
1519247955.7,286046996.6,P
1519247975.5,286046996.9,N
1519247995.9,286046996.8,N
1519248015.7,286046999.6,N
1519248035.6,286046999.1,N
1519248055.4,286046997.0,N
1519248075.3,286046997.4,N
1519248095.1,286046995.7,Y
1519248096.0,286046995.7,P
1519248115.8,286046999.6,N
1519248135.7,286046998.3,N
1519248155.5,286046998.6,N
1519248175.5,286046999.4,N
1519248195.3,286046999.1,N
1519248215.2,286046999.0,N
1519248235.0,286046999.1,N
1519248235.9,286046999.1,N
1519248255.8,286046996.6,Y
1519248275.6,286046999.6,P
1519248295.4,286046999.6,N
1519248315.3,286046998.3,P
1519248335.1,286047000.7,N
1519248355.9,286046998.6,N
1519248375.7,286046998.5,N
1519248395.5,286046998.8,N
1519248415.4,286046998.6,N
1519248435.2,286046996.6,Y
1519248455.0,286047001.0,P
1519248455.9,286047001.0,N
1519248475.8,286047000.0,N
1519248495.6,286046999.1,N
1519248515.5,286046998.4,N
1519248535.3,286047000.0,N
1519248555.1,286047001.0,N
1519248575.9,286046998.6,N
1519248595.7,286046998.3,N
1519248615.5,286046998.3,N
1519248635.4,286046999.3,N
1519248655.2,286046999.2,N
1519248675.1,286046999.5,N
1519248676.0,286046999.5,N
1519248695.8,286046997.7,N
1519248715.6,286046999.5,N
1519248735.5,286046997.2,N
1519248755.3,286046999.4,N
1519248775.1,286046996.7,Y
1519248795.9,286046998.3,P
1519248815.7,286046998.4,P
1519248835.6,286046998.9,N
1519248855.4,286046999.4,N
1519248875.2,286046998.7,Y
1519248895.1,286047001.1,P
1519248896.0,286047001.1,N
1519248915.8,286046999.0,N
1519248935.7,286046999.3,N
1519248955.5,286046998.4,N
1519248975.3,286046996.9,N
1519248995.2,286046998.9,N
1519249015.0,286046999.1,N
1519249015.9,286046999.1,N
1519249035.7,286046999.4,N
1519249055.6,286046998.5,N
1519249075.4,286046998.5,N
1519249095.3,286047001.2,N
1519249115.1,286046998.1,N
1519249116.0,286046998.1,N
1519249135.8,286047001.0,N
1519249155.7,286046998.2,N
1519249175.5,286047001.2,N
1519249195.3,286047000.8,N
1519249215.2,286046998.2,N
1519249235.0,286047000.5,N
1519249235.9,286047000.5,N
1519249255.8,286047000.8,N
1519249275.6,286046998.6,N
1519249295.4,286046999.3,N
1519249315.3,286046997.0,N
1519249335.1,286046999.2,N
1519249355.8,286046999.4,N
1519249375.7,286046999.1,N
1519249395.5,286046996.5,N
1519249415.4,286046999.4,N
1519249435.2,286046998.9,N
1519249455.3,286046998.6,N
1519249475.1,286047000.9,N
1519249476.0,286047000.9,N
1519249495.8,286046998.6,N
1519249515.7,286046998.7,N
1519249535.5,286047001.2,N
1519249555.4,286047000.7,N
1519249575.2,286047001.0,N
1519249595.0,286047000.4,N
1519249595.9,286047000.4,N
1519249615.8,286046999.9,N
1519249635.6,286047002.3,N
1519249655.4,286047002.3,N
1519249675.3,286047000.7,N
1519249695.1,286047000.5,N
1519249715.9,286046998.1,N
1519249735.7,286047001.2,N
1519249755.6,286047002.7,N
1519249775.4,286047002.3,N
1519249795.2,286047001.8,N
1519249815.1,286047002.3,N
1519249816.0,286047002.3,N
1519249835.8,286046999.8,N
1519249855.7,286047002.4,N
1519249875.5,286047000.0,N
1519249895.3,286047000.5,N
1519249915.2,286047001.9,N
1519249935.9,286047001.4,N
1519249955.7,286047002.2,N
1519249975.6,286047001.9,N
1519249995.4,286047002.7,N
1519250015.3,286047002.2,N
1519250035.1,286047002.3,N
1519250036.0,286047002.3,N
1519250055.8,286047002.8,N
1519250075.7,286047002.4,N
1519250095.5,286047001.7,N
1519250115.3,286047001.9,N
1519250135.2,286047001.8,N
1519250155.0,286047002.0,N
1519250155.9,286047002.0,N
1519250175.8,286047001.8,N
1519250195.6,286047001.6,N
1519250215.4,286047001.5,N
1519250235.3,286047001.9,N
1519250255.1,286047002.7,N
1519250275.9,286047000.7,N
1519250295.7,286046998.1,N
1519250315.5,286047000.2,N
1519250335.4,286047004.3,Y
1519250355.2,286046999.8,P
1519250375.0,286047002.5,N
1519250375.9,286047002.5,N
1519250395.8,286047002.2,N
